Flag for United Arab Emirates Weather past 2 weeks in Umm al-Quwain, Umm al-Quwain, United Arab Emirates

Now
100 °F

Sunny.


Feels Like: 105 °F
Forecast: 89 / 99 °F
Wind: 16 mph from Northwest

Location: Sharjah International Airport

Current Time: Aug 30, 2014 at 4:21:04 PM

Latest Report: Aug 30, 2014 at 4:00 PM


Visibility: 10 mi

Pressure: 29.59 "Hg

Humidity: 33%

Dew point: 66 °F

Location of Umm al-QuwainLocation

Historic Weather in Umm al-Quwain — Graph

°F

Umm al-Quwain temperature yesterday

Maximum temperature yesterday: 108 °F (at 1:00 PM)
Minimum temperature yesterday: 88 °F (at 6:00 AM)
Average temperature yesterday: 98 °F

Past Weeks' High & Low Weather Summary

 TemperatureHumidityPressure
High117 °F (Aug 16, 1:00 PM)84% (Aug 22, 4:00 AM)29.77 "Hg (Aug 22, 4:00 AM)
Low86 °F (Aug 25, 6:00 AM)10% (Aug 16, 1:00 PM)29.42 "Hg (Aug 15, 6:00 PM)
Average97 °F48%29.60 "Hg
* Reported Aug 15 3:00 PM — Aug 30 3:00 PM, Umm al-Quwain, Weather by CustomWeather, © 2014

Note: Actual official high and low records may vary slightly from our data, if they occured in-between our weather recording intervals... More about our weather records

Advertising

Umm al-Quwain weather history for previous 24 hours

 ConditionsComfort  
Time TempWeatherWind HumidityBarometerVisibility
3:00 PM
Aug 30
104 °FSunny.13 mph26%29.59 "Hg10 mi
2:00 PM104 °FPassing clouds.13 mph24%29.62 "HgN/A
1:00 PM104 °FPassing clouds.13 mph26%29.62 "HgN/A
12:00 PM104 °FPassing clouds.9 mph28%29.65 "HgN/A
11:00 AM102 °FPassing clouds.5 mph26%29.68 "HgN/A
10:00 AM100 °FPassing clouds.7 mph31%29.68 "HgN/A
9:00 AM97 °FPassing clouds.7 mph42%29.68 "HgN/A
8:00 AM93 °FPassing clouds.5 mph53%29.68 "HgN/A
7:00 AM90 °FPassing clouds.3 mph59%29.65 "HgN/A
6:00 AM90 °FSunny.2 mph59%29.65 "Hg10 mi
5:00 AM90 °FClear.3 mph59%29.62 "Hg10 mi
4:00 AM91 °FClear.No wind52%29.62 "Hg10 mi
3:00 AM91 °FPassing clouds.3 mph56%29.59 "HgN/A
2:00 AM91 °FClear.6 mph56%29.59 "Hg10 mi
1:00 AM93 °FPassing clouds.7 mph49%29.59 "HgN/A
11:00 PM
Aug 29
97 °FClear.9 mph34%29.62 "Hg10 mi
10:00 PM97 °FClear.5 mph32%29.62 "Hg10 mi
9:00 PM99 °FClear.6 mph25%29.62 "Hg10 mi
8:00 PM99 °FClear.9 mph25%29.62 "Hg5 mi
7:00 PM99 °FDuststorm.13 mph27%29.59 "Hg1 mi
6:00 PM102 °FLow level haze.14 mph27%29.59 "Hg1 mi
5:00 PM102 °FPassing clouds.13 mph37%29.53 "HgN/A
4:00 PM106 °FPassing clouds.16 mph28%29.53 "HgN/A
Weather by CustomWeather, © 2014

See weather overviewHow to use our weather pages